{"data":{"norad_id":49197,"epoch":"2026-05-25T01:31:19.437024Z","epoch_age_seconds":79856,"freshness":"FRESH","line1":"1 49197U 21083M   26145.06341941 -.00000290  00000+0 -82840-3 0  9997","line2":"2 49197  87.8949 324.8142 0001769  96.4188 263.7142 13.13468395227863","mean_motion":13.13468395,"eccentricity":0.0001769,"inclination_deg":87.8949,"raan_deg":324.8142,"arg_perigee_deg":96.4188,"mean_anomaly_deg":263.7142,"bstar":-0.0008284,"rev_number":22786,"period_min":109.63339548037,"perigee_km":1208.4292802573,"apogee_km":1211.1138823134,"semimajor_km":7587.9085812853,"source":"CELESTRAK","updated_at":"2026-05-25T13:38:22.491160Z"}}